星链-5575 (STARLINK-5575 )

导读 | 星芒AI

STARLINK-5575 是 SpaceX Starlink 卫星互联网项目中的一颗低轨通信卫星。它属于 Starlink 群体部署计划的一部分,旨在为全球用户提供高速、低延迟的互联网服务。该卫星采用现代化设计,配备先进推进系统和激光通信技术,以提升网络效率和稳定性。STARLINK-5575 于近期由 SpaceX 发射入轨,加入其庞大的卫星星座,进一步扩展 Starlink 的覆盖范围,特别是在偏远和网络基础设施薄弱的地区。

基本信息
目录编号:
55381
目录名称:
STARLINK-5575
国际标识:
2023-013BC
轨道中心:
EARTH
卫星名称:
星链-5575
卫星全名:
星链-5575 (STARLINK-5575 )
卫星状态:
在轨 (已飞行1013 天)
发射日期:
2023-01-26 UTC
国别 :
美国 (US)
星等 :
--
轨道信息
数据来源 国际轨道数据
星历时间: 2025-11-04T12:14:18+0800
14小时前
查看轨道信息
半长轴: 6937.22km
偏心率: 0.0001024
轨道倾角: 43.004°
近地点辐角 268.787°
升交点赤经 274.922°
平近点角 91.285°
近地点: 558.374km
远地点: 559.796km
周期: 95.838分钟
每日圈数: 15.02535
详细信息
固有亮度:
5
最大亮度:
2.5
卫星平台:
Starlink v1.5
覆盖范围:
全球
运营商:
太空探索技术公司
运营商所在国:
美国
制造商(研发单位):
太空探索技术公司
制造商所在国:
美国
使用方式:
暂无
卫星简介
星链(Starlink)计划是由太空探索技术公司(SpaceX)提出的一个巨型低轨卫星互联网星座项目,计划在2019年至2024年间在太空搭建由约1.2万颗卫星组成的“星链”网络,其中1584颗将部署在地球上空550千米处的近地轨道,并从2020年开始工作。该卫星仍在工作。
2D轨道图
3D轨道图
轨道高度分析图
轨道倾角分析图
轨道综合分析图
查看轨道综合分析图